Weather History for Homer, AK

Change the Weather History Date:

Sunday, October 30, 2011

  Actual Average Record
Temperature  
Mean Temperature 32 °F -  
Max Temperature 37 °F 37 °F 53 °F (2002)
Min Temperature 24 °F 26 °F 2 °F (1975)
Degree Days  
Heating Degree Days 34    
Moisture  
Dew Point 23 °F    
Average Humidity 65    
Maximum Humidity 100    
Minimum Humidity 44    
Precipitation  
Precipitation 0.02 in - - ()
Sea Level Pressure  
Sea Level Pressure 29.50 in    
Wind  
Wind Speed 10 mph (West)    
Max Wind Speed 22 mph    
Max Gust Speed 31 mph    
Visibility 10 miles    
Events Rain , Snow    
Averages and records for this station are not official NWS values.
T = Trace of Precipitation, MM = Missing Value Source: NWS Daily Summary

Daily Weather History Graph

Daily Weather History Graph

Search for Another Location

Airport:

Trip Planner

Search our weather history database for the weather conditions in past years. The results will help you decide how hot, cold, wet, or windy it might be!

Date:

Astronomy

Oct. 30, 2011 Rise Set
Actual Time 9:21 AM AKDT 6:16 PM AKDT
Civil Twilight 8:37 AM AKDT 7:00 PM AKDT
Nautical Twilight 7:48 AM AKDT 7:49 PM AKDT
Astronomical Twilight 7:00 AM AKDT 8:36 PM AKDT
Moon 2:39 PM AKDT (10/30) 9:10 PM AKDT (10/30)
Length of Visible Light 10h 23m
Length of Day
8h 55m
Waxing Crescent, 21% of the Moon is Illuminated
Oct 30
Waxing Crescent
Nov 2
First Quarter
Nov 10
Full
Nov 18
Last Quarter
Nov 24
New

Hourly Weather History & Observations

Time (AKDT) Temp. Windchill Dew Point Humidity Pressure Visibility Wind Dir Wind Speed Gust Speed Precip Events Conditions
12:26 AM 33.8 °F 29.6 °F 33.8 °F 100% 29.28 in 10.0 mi NE 4.6 mph - N/A   Overcast
12:53 AM 34.0 °F - 33.1 °F 96% 29.29 in 7.0 mi Calm Calm - 0.00 in Rain Light Rain
1:03 AM 33.8 °F - 33.8 °F 100% 29.30 in 8.0 mi Calm Calm - 0.01 in Rain Light Rain
1:13 AM 33.8 °F 28.6 °F 33.8 °F 100% 29.30 in 9.0 mi Variable 5.8 mph - 0.01 in Rain Light Rain
1:53 AM 37.0 °F 27.7 °F 33.1 °F 86% 29.31 in 9.0 mi WSW 16.1 mph 25.3 mph 0.02 in Snow Light Snow
2:03 AM 37.4 °F 27.8 °F 32.0 °F 81% 29.31 in 9.0 mi West 17.3 mph 25.3 mph 0.00 in Snow Light Snow
2:53 AM 37.0 °F 27.7 °F 30.0 °F 76% 29.34 in 9.0 mi West 16.1 mph 23.0 mph 0.00 in Snow Light Snow
3:53 AM 36.0 °F 25.0 °F 28.0 °F 73% 29.37 in 9.0 mi WSW 20.7 mph 27.6 mph 0.00 in Snow Light Snow
4:53 AM 37.0 °F 26.7 °F 26.1 °F 65% 29.38 in 9.0 mi West 19.6 mph 28.8 mph 0.00 in Snow Light Snow
5:53 AM 36.0 °F 25.3 °F 25.0 °F 64% 29.40 in 9.0 mi West 19.6 mph 29.9 mph 0.00 in   Overcast
6:53 AM 36.0 °F 24.7 °F 21.9 °F 57% 29.44 in 9.0 mi West 21.9 mph 31.1 mph N/A   Overcast
7:53 AM 36.0 °F 25.6 °F 21.9 °F 57% 29.46 in 9.0 mi West 18.4 mph 31.1 mph N/A   Overcast
8:53 AM 35.1 °F 25.9 °F 21.0 °F 57% 29.48 in 9.0 mi West 13.8 mph 28.8 mph N/A   Scattered Clouds
9:53 AM 34.0 °F 23.0 °F 19.0 °F 54% 29.51 in 10.0 mi West 18.4 mph 25.3 mph N/A   Scattered Clouds
10:53 AM 35.1 °F 24.8 °F 21.9 °F 59% 29.52 in 10.0 mi West 17.3 mph 29.9 mph N/A   Scattered Clouds
11:53 AM 35.1 °F 24.1 °F 19.9 °F 54% 29.55 in 10.0 mi West 19.6 mph 28.8 mph N/A   Partly Cloudy
12:53 PM 36.0 °F 26.0 °F 19.9 °F 52% 29.57 in 10.0 mi West 17.3 mph 23.0 mph N/A   Clear
1:53 PM 36.0 °F 25.6 °F 19.0 °F 50% 29.60 in 10.0 mi West 18.4 mph 28.8 mph N/A   Clear
2:53 PM 36.0 °F 25.0 °F 19.0 °F 50% 29.61 in 10.0 mi West 20.7 mph 27.6 mph N/A   Clear
3:53 PM 35.1 °F 25.2 °F 17.1 °F 48% 29.62 in 10.0 mi West 16.1 mph 24.2 mph N/A   Clear
4:53 PM 33.1 °F 24.4 °F 16.0 °F 50% 29.64 in 10.0 mi West 11.5 mph - N/A   Partly Cloudy
5:53 PM 34.0 °F 31.0 °F 14.0 °F 44% 29.66 in 10.0 mi North 3.5 mph - N/A   Scattered Clouds
6:53 PM 33.1 °F 24.4 °F 17.1 °F 52% 29.67 in 10.0 mi West 11.5 mph - N/A   Mostly Cloudy
7:53 PM 32.0 °F 24.8 °F 15.1 °F 50% 29.69 in 10.0 mi West 8.1 mph - N/A   Clear
8:53 PM 30.9 °F - 15.1 °F 52% 29.69 in 10.0 mi Calm Calm - N/A   Clear
9:53 PM 28.9 °F - 15.1 °F 56% 29.70 in 10.0 mi Calm Calm - N/A   Clear
10:53 PM 26.1 °F - 16.0 °F 66% 29.71 in 10.0 mi Calm Calm - N/A   Partly Cloudy
11:53 PM 24.1 °F 18.2 °F 17.1 °F 75% 29.70 in 10.0 mi NE 4.6 mph - N/A   Clear